Year,Month,Day,Hour,Minute,Value (Times are PST for temperature in C)
2016,08,05,00,00,18.70
2016,08,05,00,01,18.60
2016,08,05,00,02,18.60
2016,08,05,00,03,18.50
2016,08,05,00,04,18.50
2016,08,05,00,05,18.40
2016,08,05,00,06,18.40
2016,08,05,00,07,18.30
2016,08,05,00,08,18.30
2016,08,05,00,09,18.30
2016,08,05,00,10,18.20
2016,08,05,00,11,18.20
2016,08,05,00,12,18.20
2016,08,05,00,13,18.20
2016,08,05,00,14,18.20
2016,08,05,00,15,18.20
2016,08,05,00,16,18.20
2016,08,05,00,17,18.20
2016,08,05,00,18,18.30
2016,08,05,00,19,18.30
2016,08,05,00,20,18.30
2016,08,05,00,21,18.30
2016,08,05,00,22,18.30
2016,08,05,00,23,18.30
2016,08,05,00,24,18.30
2016,08,05,00,25,18.20
2016,08,05,00,26,18.20
2016,08,05,00,27,18.20
2016,08,05,00,28,18.20
2016,08,05,00,29,18.20
2016,08,05,00,30,18.20
2016,08,05,00,31,18.20
2016,08,05,00,32,18.10
2016,08,05,00,33,18.10
2016,08,05,00,34,18.10
2016,08,05,00,35,18.10
2016,08,05,00,36,18.10
2016,08,05,00,37,18.10
2016,08,05,00,38,18.10
2016,08,05,00,39,18.00
2016,08,05,00,40,18.00
2016,08,05,00,41,17.90
2016,08,05,00,42,17.90
2016,08,05,00,43,17.90
2016,08,05,00,44,17.80
2016,08,05,00,45,17.80
2016,08,05,00,46,17.80
2016,08,05,00,47,17.80
2016,08,05,00,48,17.80
2016,08,05,00,49,17.80
2016,08,05,00,50,17.80
2016,08,05,00,51,17.80
2016,08,05,00,52,17.80
2016,08,05,00,53,17.80
2016,08,05,00,54,17.90
2016,08,05,00,55,17.90
2016,08,05,00,56,18.00
2016,08,05,00,57,18.10
2016,08,05,00,58,18.10
2016,08,05,00,59,18.10
2016,08,05,01,00,18.10
2016,08,05,01,01,18.10
2016,08,05,01,02,18.10
2016,08,05,01,03,18.10
2016,08,05,01,04,18.10
2016,08,05,01,05,18.10
2016,08,05,01,06,18.10
2016,08,05,01,07,18.10
2016,08,05,01,08,18.10
2016,08,05,01,09,18.10
2016,08,05,01,10,18.10
2016,08,05,01,11,18.10
2016,08,05,01,12,18.10
2016,08,05,01,13,18.10
2016,08,05,01,14,18.10
2016,08,05,01,15,18.00
2016,08,05,01,16,18.00
2016,08,05,01,17,18.00
2016,08,05,01,18,18.00
2016,08,05,01,19,18.00
2016,08,05,01,20,17.90
2016,08,05,01,21,17.90
2016,08,05,01,22,17.90
2016,08,05,01,23,17.90
2016,08,05,01,24,17.80
2016,08,05,01,25,17.80
2016,08,05,01,26,17.70
2016,08,05,01,27,17.70
2016,08,05,01,28,17.70
2016,08,05,01,29,17.70
2016,08,05,01,30,17.70
2016,08,05,01,31,17.60
2016,08,05,01,32,17.60
2016,08,05,01,33,17.60
2016,08,05,01,34,17.60
2016,08,05,01,35,17.60
2016,08,05,01,36,17.60
2016,08,05,01,37,17.60
2016,08,05,01,38,17.60
2016,08,05,01,39,17.60
2016,08,05,01,40,17.60
2016,08,05,01,41,17.60
2016,08,05,01,42,17.60
2016,08,05,01,43,17.60
2016,08,05,01,44,17.60
2016,08,05,01,45,17.60
2016,08,05,01,46,17.60
2016,08,05,01,47,17.60
2016,08,05,01,48,17.50
2016,08,05,01,49,17.50
2016,08,05,01,50,17.50
2016,08,05,01,51,17.40
2016,08,05,01,52,17.40
2016,08,05,01,53,17.40
2016,08,05,01,54,17.40
2016,08,05,01,55,17.40
2016,08,05,01,56,17.40
2016,08,05,01,57,17.30
2016,08,05,01,58,17.30
2016,08,05,01,59,17.30
2016,08,05,02,00,17.30
2016,08,05,02,01,17.20
2016,08,05,02,02,17.20
2016,08,05,02,03,17.20
2016,08,05,02,04,17.20
2016,08,05,02,05,17.10
2016,08,05,02,06,17.10
2016,08,05,02,07,17.10
2016,08,05,02,08,17.10
2016,08,05,02,09,17.00
2016,08,05,02,10,17.00
2016,08,05,02,11,17.00
2016,08,05,02,12,16.90
2016,08,05,02,13,16.90
2016,08,05,02,14,16.90
2016,08,05,02,15,16.90
2016,08,05,02,16,16.80
2016,08,05,02,17,16.80
2016,08,05,02,18,16.80
2016,08,05,02,19,16.80
2016,08,05,02,20,16.80
2016,08,05,02,21,16.90
2016,08,05,02,22,16.90
2016,08,05,02,23,16.90
2016,08,05,02,24,16.90
2016,08,05,02,25,16.90
2016,08,05,02,26,16.90
2016,08,05,02,27,16.90
2016,08,05,02,28,16.80
2016,08,05,02,29,16.80
2016,08,05,02,30,16.80
2016,08,05,02,31,16.90
2016,08,05,02,32,16.90
2016,08,05,02,33,16.90
2016,08,05,02,34,16.90
2016,08,05,02,35,16.90
2016,08,05,02,36,16.90
2016,08,05,02,37,16.90
2016,08,05,02,38,16.90
2016,08,05,02,39,17.00
2016,08,05,02,40,17.00
2016,08,05,02,41,17.00
2016,08,05,02,42,16.90
2016,08,05,02,43,16.90
2016,08,05,02,44,16.90
2016,08,05,02,45,16.90
2016,08,05,02,46,16.90
2016,08,05,02,47,16.90
2016,08,05,02,48,16.90
2016,08,05,02,49,16.90
2016,08,05,02,50,16.90
2016,08,05,02,51,16.90
2016,08,05,02,52,16.90
2016,08,05,02,53,16.90
2016,08,05,02,54,16.90
2016,08,05,02,55,16.90
2016,08,05,02,56,16.90
2016,08,05,02,57,16.90
2016,08,05,02,58,16.80
2016,08,05,02,59,16.80
2016,08,05,03,00,16.80
2016,08,05,03,01,16.80
2016,08,05,03,02,16.70
2016,08,05,03,03,16.70
2016,08,05,03,04,16.70
2016,08,05,03,05,16.70
2016,08,05,03,06,16.70
2016,08,05,03,07,16.60
2016,08,05,03,08,16.60
2016,08,05,03,09,16.60
2016,08,05,03,10,16.60
2016,08,05,03,11,16.60
2016,08,05,03,12,16.60
2016,08,05,03,13,16.60
2016,08,05,03,14,16.60
2016,08,05,03,15,16.60
2016,08,05,03,16,16.60
2016,08,05,03,17,16.60
2016,08,05,03,18,16.60
2016,08,05,03,19,16.60
2016,08,05,03,20,16.50
2016,08,05,03,21,16.50
2016,08,05,03,22,16.50
2016,08,05,03,23,16.50
2016,08,05,03,24,16.50
2016,08,05,03,25,16.50
2016,08,05,03,26,16.40
2016,08,05,03,27,16.40
2016,08,05,03,28,16.40
2016,08,05,03,29,16.40
2016,08,05,03,30,16.40
2016,08,05,03,31,16.40
2016,08,05,03,32,16.40
2016,08,05,03,33,16.40
2016,08,05,03,34,16.40
2016,08,05,03,35,16.40
2016,08,05,03,36,16.40
2016,08,05,03,37,16.40
2016,08,05,03,38,16.40
2016,08,05,03,39,16.40
2016,08,05,03,40,16.30
2016,08,05,03,41,16.30
2016,08,05,03,42,16.30
2016,08,05,03,43,16.30
2016,08,05,03,44,16.30
2016,08,05,03,45,16.30
2016,08,05,03,46,16.20
2016,08,05,03,47,16.20
2016,08,05,03,48,16.20
2016,08,05,03,49,16.10
2016,08,05,03,50,16.10
2016,08,05,03,51,16.10
2016,08,05,03,52,16.10
2016,08,05,03,53,16.10
2016,08,05,03,54,16.00
2016,08,05,03,55,16.10
2016,08,05,03,56,16.10
2016,08,05,03,57,16.10
2016,08,05,03,58,16.10
2016,08,05,03,59,16.10
2016,08,05,04,00,16.00
2016,08,05,04,01,16.00
2016,08,05,04,02,16.00
2016,08,05,04,03,16.00
2016,08,05,04,04,16.00
2016,08,05,04,05,16.00
2016,08,05,04,06,16.00
2016,08,05,04,07,15.90
2016,08,05,04,08,15.90
2016,08,05,04,09,15.90
2016,08,05,04,10,15.90
2016,08,05,04,11,15.90
2016,08,05,04,12,15.80
2016,08,05,04,13,15.80
2016,08,05,04,14,15.80
2016,08,05,04,15,15.70
2016,08,05,04,16,15.70
2016,08,05,04,17,15.70
2016,08,05,04,18,15.70
2016,08,05,04,19,15.60
2016,08,05,04,20,15.60
2016,08,05,04,21,15.60
2016,08,05,04,22,15.50
2016,08,05,04,23,15.50
2016,08,05,04,24,15.50
2016,08,05,04,25,15.40
2016,08,05,04,26,15.40
2016,08,05,04,27,15.40
2016,08,05,04,28,15.40
2016,08,05,04,29,15.30
2016,08,05,04,30,15.30
2016,08,05,04,31,15.30
2016,08,05,04,32,15.30
2016,08,05,04,33,15.30
2016,08,05,04,34,15.30
2016,08,05,04,35,15.30
2016,08,05,04,36,15.30
2016,08,05,04,37,15.30
2016,08,05,04,38,15.30
2016,08,05,04,39,15.30
2016,08,05,04,40,15.30
2016,08,05,04,41,15.30
2016,08,05,04,42,15.30
2016,08,05,04,43,15.30
2016,08,05,04,44,15.30
2016,08,05,04,45,15.30
2016,08,05,04,46,15.30
2016,08,05,04,47,15.30
2016,08,05,04,48,15.30
2016,08,05,04,49,15.30
2016,08,05,04,50,15.30
2016,08,05,04,51,15.30
2016,08,05,04,52,15.30
2016,08,05,04,53,15.30
2016,08,05,04,54,15.30
2016,08,05,04,55,15.40
2016,08,05,04,56,15.40
2016,08,05,04,57,15.40
2016,08,05,04,58,15.40
2016,08,05,04,59,15.40
2016,08,05,05,00,15.40
2016,08,05,05,01,15.40
2016,08,05,05,02,15.40
2016,08,05,05,03,15.40
2016,08,05,05,04,15.50
2016,08,05,05,05,15.50
2016,08,05,05,06,15.50
2016,08,05,05,07,15.50
2016,08,05,05,08,15.50
2016,08,05,05,09,15.50
2016,08,05,05,10,15.50
2016,08,05,05,11,15.60
2016,08,05,05,12,15.60
2016,08,05,05,13,15.60
2016,08,05,05,14,15.60
2016,08,05,05,15,15.50
2016,08,05,05,16,15.50
2016,08,05,05,17,15.50
2016,08,05,05,18,15.40
2016,08,05,05,19,15.40
2016,08,05,05,20,15.40
2016,08,05,05,21,15.40
2016,08,05,05,22,15.40
2016,08,05,05,23,15.30
2016,08,05,05,24,15.30
2016,08,05,05,25,15.30
2016,08,05,05,26,15.30
2016,08,05,05,27,15.30
2016,08,05,05,28,15.30
2016,08,05,05,29,15.40
2016,08,05,05,30,15.40
2016,08,05,05,31,15.40
2016,08,05,05,32,15.50
2016,08,05,05,33,15.50
2016,08,05,05,34,15.50
2016,08,05,05,35,15.50
2016,08,05,05,36,15.60
2016,08,05,05,37,15.60
2016,08,05,05,38,15.60
2016,08,05,05,39,15.60
2016,08,05,05,40,15.60
2016,08,05,05,41,15.50
2016,08,05,05,42,15.50
2016,08,05,05,43,15.50
2016,08,05,05,44,15.50
2016,08,05,05,45,15.40
2016,08,05,05,46,15.40
2016,08,05,05,47,15.40
2016,08,05,05,48,15.40
2016,08,05,05,49,15.40
2016,08,05,05,50,15.40
2016,08,05,05,51,15.30
2016,08,05,05,52,15.30
2016,08,05,05,53,15.30
2016,08,05,05,54,15.30
2016,08,05,05,55,15.20
2016,08,05,05,56,15.10
2016,08,05,05,57,15.00
2016,08,05,05,58,14.80
2016,08,05,05,59,14.70
2016,08,05,06,00,14.70
2016,08,05,06,01,14.60
2016,08,05,06,02,14.60
2016,08,05,06,03,14.60
2016,08,05,06,04,14.60
2016,08,05,06,05,14.60
2016,08,05,06,06,14.60
2016,08,05,06,07,14.60
2016,08,05,06,08,14.60
2016,08,05,06,09,14.50
2016,08,05,06,10,14.10
2016,08,05,06,11,14.10
2016,08,05,06,12,14.00
2016,08,05,06,13,13.90
2016,08,05,06,14,13.90
2016,08,05,06,15,13.90
2016,08,05,06,16,13.80
2016,08,05,06,17,13.80
2016,08,05,06,18,13.80
2016,08,05,06,19,13.70
2016,08,05,06,20,13.70
2016,08,05,06,21,13.60
2016,08,05,06,22,13.60
2016,08,05,06,23,13.60
2016,08,05,06,24,13.50
2016,08,05,06,25,13.50
2016,08,05,06,26,13.40
2016,08,05,06,27,13.40
2016,08,05,06,28,13.40
2016,08,05,06,29,13.40
2016,08,05,06,30,13.40
2016,08,05,06,31,13.40
2016,08,05,06,32,13.40
2016,08,05,06,33,13.30
2016,08,05,06,34,13.30
2016,08,05,06,35,13.30
2016,08,05,06,36,13.30
2016,08,05,06,37,13.30
2016,08,05,06,38,13.30
2016,08,05,06,39,13.30
2016,08,05,06,40,13.30
2016,08,05,06,41,13.30
2016,08,05,06,42,13.40
2016,08,05,06,43,13.40
2016,08,05,06,44,13.40
2016,08,05,06,45,13.50
2016,08,05,06,46,13.50
2016,08,05,06,47,13.60
2016,08,05,06,48,13.60
2016,08,05,06,49,13.70
2016,08,05,06,50,13.70
2016,08,05,06,51,13.80
2016,08,05,06,52,13.80
2016,08,05,06,53,13.90
2016,08,05,06,54,13.90
2016,08,05,06,55,13.90
2016,08,05,06,56,13.90
2016,08,05,06,57,14.00
2016,08,05,06,58,14.00
2016,08,05,06,59,14.00
2016,08,05,07,00,14.10
2016,08,05,07,01,14.10
2016,08,05,07,02,14.10
2016,08,05,07,03,14.10
2016,08,05,07,04,14.10
2016,08,05,07,05,14.10
2016,08,05,07,06,14.20
2016,08,05,07,07,14.20
2016,08,05,07,08,14.20
2016,08,05,07,09,14.20
2016,08,05,07,10,14.20
2016,08,05,07,11,14.20
2016,08,05,07,12,14.20
2016,08,05,07,13,14.20
2016,08,05,07,14,14.20
2016,08,05,07,15,14.20
2016,08,05,07,16,14.20
2016,08,05,07,17,14.20
2016,08,05,07,18,14.20
2016,08,05,07,19,14.20
2016,08,05,07,20,14.30
2016,08,05,07,21,14.30
2016,08,05,07,22,14.30
2016,08,05,07,23,14.30
2016,08,05,07,24,14.30
2016,08,05,07,25,14.30
2016,08,05,07,26,14.30
2016,08,05,07,27,14.30
2016,08,05,07,28,14.30
2016,08,05,07,29,14.30
2016,08,05,07,30,14.30
2016,08,05,07,31,14.40
2016,08,05,07,32,14.40
2016,08,05,07,33,14.40
2016,08,05,07,34,14.50
2016,08,05,07,35,14.60
2016,08,05,07,36,14.60
2016,08,05,07,37,14.60
2016,08,05,07,38,14.70
2016,08,05,07,39,14.70
2016,08,05,07,40,14.70
2016,08,05,07,41,14.80
2016,08,05,07,42,14.80
2016,08,05,07,43,14.80
2016,08,05,07,44,14.80
2016,08,05,07,45,14.80
2016,08,05,07,46,14.80
2016,08,05,07,47,14.90
2016,08,05,07,48,14.90
2016,08,05,07,49,14.90
2016,08,05,07,50,15.00
2016,08,05,07,51,15.10
2016,08,05,07,52,15.10
2016,08,05,07,53,15.20
2016,08,05,07,54,15.20
2016,08,05,07,55,15.20
2016,08,05,07,56,15.30
2016,08,05,07,57,15.30
2016,08,05,07,58,15.40
2016,08,05,07,59,15.40
2016,08,05,08,00,15.50
2016,08,05,08,01,15.60
2016,08,05,08,02,15.60
2016,08,05,08,03,15.60
2016,08,05,08,04,15.70
2016,08,05,08,05,15.70
2016,08,05,08,06,15.80
2016,08,05,08,07,15.90
2016,08,05,08,08,15.90
2016,08,05,08,09,16.00
2016,08,05,08,10,16.10
2016,08,05,08,11,16.20
2016,08,05,08,12,16.20
2016,08,05,08,13,16.20
2016,08,05,08,14,16.20
2016,08,05,08,15,16.20
2016,08,05,08,16,16.20
2016,08,05,08,17,16.20
2016,08,05,08,18,16.20
2016,08,05,08,19,16.20
2016,08,05,08,20,16.20
2016,08,05,08,21,16.20
2016,08,05,08,22,16.20
2016,08,05,08,23,16.20
2016,08,05,08,24,16.10
2016,08,05,08,25,16.20
2016,08,05,08,26,16.20
2016,08,05,08,27,16.20
2016,08,05,08,28,16.20
2016,08,05,08,29,16.20
2016,08,05,08,30,16.30
2016,08,05,08,31,16.40
2016,08,05,08,32,16.50
2016,08,05,08,33,16.60
2016,08,05,08,34,16.60
2016,08,05,08,35,16.70
2016,08,05,08,36,16.70
2016,08,05,08,37,16.70
2016,08,05,08,38,16.70
2016,08,05,08,39,16.70
2016,08,05,08,40,16.70
2016,08,05,08,41,16.60
2016,08,05,08,42,16.60
2016,08,05,08,43,16.50
2016,08,05,08,44,16.50
2016,08,05,08,45,16.40
2016,08,05,08,46,16.40
2016,08,05,08,47,16.50
2016,08,05,08,48,16.50
2016,08,05,08,49,16.60
2016,08,05,08,50,16.70
2016,08,05,08,51,16.70
2016,08,05,08,52,16.80
2016,08,05,08,53,16.80
2016,08,05,08,54,16.80
2016,08,05,08,55,16.80
2016,08,05,08,56,16.80
2016,08,05,08,57,16.90
2016,08,05,08,58,16.90
2016,08,05,08,59,16.90
2016,08,05,09,00,16.90
2016,08,05,09,01,17.00
2016,08,05,09,02,17.00
2016,08,05,09,03,17.10
2016,08,05,09,04,17.10
2016,08,05,09,05,17.20
2016,08,05,09,06,17.20
2016,08,05,09,07,17.20
2016,08,05,09,08,17.30
2016,08,05,09,09,17.30
2016,08,05,09,10,17.40
2016,08,05,09,11,17.50
2016,08,05,09,12,17.50
2016,08,05,09,13,17.50
2016,08,05,09,14,17.60
2016,08,05,09,15,17.60
2016,08,05,09,16,17.70
2016,08,05,09,17,17.70
2016,08,05,09,18,17.80
2016,08,05,09,19,17.80
2016,08,05,09,20,17.80
2016,08,05,09,21,17.80
2016,08,05,09,22,17.80
2016,08,05,09,23,17.70
2016,08,05,09,24,17.70
2016,08,05,09,25,17.70
2016,08,05,09,26,17.80
2016,08,05,09,27,17.90
2016,08,05,09,28,18.00
2016,08,05,09,29,18.00
2016,08,05,09,30,18.10
2016,08,05,09,31,18.10
2016,08,05,09,32,18.10
2016,08,05,09,33,18.20
2016,08,05,09,34,18.30
2016,08,05,09,35,18.30
2016,08,05,09,36,18.40
2016,08,05,09,37,18.40
2016,08,05,09,38,18.40
2016,08,05,09,39,18.40
2016,08,05,09,40,18.30
2016,08,05,09,41,18.20
2016,08,05,09,42,18.10
2016,08,05,09,43,18.10
2016,08,05,09,44,18.10
2016,08,05,09,45,18.10
2016,08,05,09,46,18.10
2016,08,05,09,47,18.10
2016,08,05,09,48,18.20
2016,08,05,09,49,18.20
2016,08,05,09,50,18.20
2016,08,05,09,51,18.30
2016,08,05,09,52,18.30
2016,08,05,09,53,18.30
2016,08,05,09,54,18.30
2016,08,05,09,55,18.30
2016,08,05,09,56,18.30
2016,08,05,09,57,18.30
2016,08,05,09,58,18.30
2016,08,05,09,59,18.30
2016,08,05,10,00,18.40
2016,08,05,10,01,18.40
2016,08,05,10,02,18.40
2016,08,05,10,03,18.50
2016,08,05,10,04,18.50
2016,08,05,10,05,18.60
2016,08,05,10,06,18.60
2016,08,05,10,07,18.70
2016,08,05,10,08,18.80
2016,08,05,10,09,18.80
2016,08,05,10,10,18.90
2016,08,05,10,11,19.00
2016,08,05,10,12,19.10
2016,08,05,10,13,19.20
2016,08,05,10,14,19.20
2016,08,05,10,15,19.30
2016,08,05,10,16,19.30
2016,08,05,10,17,19.40
2016,08,05,10,18,19.50
2016,08,05,10,19,19.70
2016,08,05,10,20,19.80
2016,08,05,10,21,19.90
2016,08,05,10,22,20.00
2016,08,05,10,23,20.00
2016,08,05,10,24,19.90
2016,08,05,10,25,19.90
2016,08,05,10,26,19.90
2016,08,05,10,27,19.90
2016,08,05,10,28,19.90
2016,08,05,10,29,19.80
2016,08,05,10,30,19.80
2016,08,05,10,31,19.80
2016,08,05,10,32,19.80
2016,08,05,10,33,19.70
2016,08,05,10,34,19.70
2016,08,05,10,35,19.70
2016,08,05,10,36,19.70
2016,08,05,10,37,19.70
2016,08,05,10,38,19.60
2016,08,05,10,39,19.60
2016,08,05,10,40,19.50
2016,08,05,10,41,19.50
2016,08,05,10,42,19.50
2016,08,05,10,43,19.50
2016,08,05,10,44,19.60
2016,08,05,10,45,19.60
2016,08,05,10,46,19.60
2016,08,05,10,47,19.70
2016,08,05,10,48,19.80
2016,08,05,10,49,19.80
2016,08,05,10,50,19.90
2016,08,05,10,51,19.90
2016,08,05,10,52,19.90
2016,08,05,10,53,20.00
2016,08,05,10,54,20.00
2016,08,05,10,55,20.10
2016,08,05,10,56,20.10
2016,08,05,10,57,20.20
2016,08,05,10,58,20.20
2016,08,05,10,59,20.20
2016,08,05,11,00,20.30
2016,08,05,11,01,20.40
2016,08,05,11,02,20.40
2016,08,05,11,03,20.50
2016,08,05,11,04,20.40
2016,08,05,11,05,20.40
2016,08,05,11,06,20.40
2016,08,05,11,07,20.40
2016,08,05,11,08,20.40
2016,08,05,11,09,20.40
2016,08,05,11,10,20.30
2016,08,05,11,11,20.30
2016,08,05,11,12,20.30
2016,08,05,11,13,20.30
2016,08,05,11,14,20.30
2016,08,05,11,15,20.30
2016,08,05,11,16,20.30
2016,08,05,11,17,20.30
2016,08,05,11,18,20.30
2016,08,05,11,19,20.30
2016,08,05,11,20,20.30
2016,08,05,11,21,20.40
2016,08,05,11,22,20.40
2016,08,05,11,23,20.40
2016,08,05,11,24,20.40
2016,08,05,11,25,20.40
2016,08,05,11,26,20.40
2016,08,05,11,27,20.40
2016,08,05,11,28,20.30
2016,08,05,11,29,20.30
2016,08,05,11,30,20.40
2016,08,05,11,31,20.50
2016,08,05,11,32,20.50
2016,08,05,11,33,20.60
2016,08,05,11,34,20.60
2016,08,05,11,35,20.60
2016,08,05,11,36,20.50
2016,08,05,11,37,20.50
2016,08,05,11,38,20.50
2016,08,05,11,39,20.50
2016,08,05,11,40,20.50
2016,08,05,11,41,20.50
2016,08,05,11,42,20.50
2016,08,05,11,43,20.50
2016,08,05,11,44,20.50
2016,08,05,11,45,20.50
2016,08,05,11,46,20.50
2016,08,05,11,47,20.80
2016,08,05,11,48,20.90
2016,08,05,11,49,21.00
2016,08,05,11,50,21.00
2016,08,05,11,51,21.00
2016,08,05,11,52,21.00
2016,08,05,11,53,20.90
2016,08,05,11,54,20.90
2016,08,05,11,55,20.90
2016,08,05,11,56,20.90
2016,08,05,11,57,21.00
2016,08,05,11,58,21.00
2016,08,05,11,59,21.00
2016,08,05,12,00,21.10
2016,08,05,12,01,21.20
2016,08,05,12,02,21.30
2016,08,05,12,03,21.40
2016,08,05,12,04,21.50
2016,08,05,12,05,21.60
2016,08,05,12,06,21.60
2016,08,05,12,07,21.70
2016,08,05,12,08,21.70
2016,08,05,12,09,21.80
2016,08,05,12,10,21.80
2016,08,05,12,11,21.90
2016,08,05,12,12,21.90
2016,08,05,12,13,21.90
2016,08,05,12,14,21.80
2016,08,05,12,15,21.80
2016,08,05,12,16,21.90
2016,08,05,12,17,21.90
2016,08,05,12,18,21.90
2016,08,05,12,19,21.90
2016,08,05,12,20,21.90
2016,08,05,12,21,21.90
2016,08,05,12,22,21.80
2016,08,05,12,23,21.80
2016,08,05,12,24,21.80
2016,08,05,12,25,21.70
2016,08,05,12,26,21.60
2016,08,05,12,27,21.50
2016,08,05,12,28,21.40
2016,08,05,12,29,21.40
2016,08,05,12,30,21.40
2016,08,05,12,31,21.40
2016,08,05,12,32,21.30
2016,08,05,12,33,21.30
2016,08,05,12,34,21.30
2016,08,05,12,35,21.20
2016,08,05,12,36,21.20
2016,08,05,12,37,21.20
2016,08,05,12,38,21.20
2016,08,05,12,39,21.20
2016,08,05,12,40,21.30
2016,08,05,12,41,21.30
2016,08,05,12,42,21.40
2016,08,05,12,43,21.40
2016,08,05,12,44,21.50
2016,08,05,12,45,21.60
2016,08,05,12,46,21.70
2016,08,05,12,47,21.70
2016,08,05,12,48,21.80
2016,08,05,12,49,21.90
2016,08,05,12,50,22.00
2016,08,05,12,51,22.00
2016,08,05,12,52,22.00
2016,08,05,12,53,22.00
2016,08,05,12,54,21.90
2016,08,05,12,55,21.90
2016,08,05,12,56,21.90
2016,08,05,12,57,21.90
2016,08,05,12,58,21.80
2016,08,05,12,59,21.80
2016,08,05,13,00,21.70
2016,08,05,13,01,21.70
2016,08,05,13,02,21.60
2016,08,05,13,03,21.60
2016,08,05,13,04,21.60
2016,08,05,13,05,21.60
2016,08,05,13,06,21.50
2016,08,05,13,07,21.40
2016,08,05,13,08,21.30
2016,08,05,13,09,21.30
2016,08,05,13,10,21.40
2016,08,05,13,11,21.40
2016,08,05,13,12,21.50
2016,08,05,13,13,21.50
2016,08,05,13,14,21.40
2016,08,05,13,15,21.40
2016,08,05,13,16,21.40
2016,08,05,13,17,21.50
2016,08,05,13,18,21.60
2016,08,05,13,19,21.60
2016,08,05,13,20,21.70
2016,08,05,13,21,21.80
2016,08,05,13,22,21.90
2016,08,05,13,23,22.00
2016,08,05,13,24,22.10
2016,08,05,13,25,22.20
2016,08,05,13,26,22.20
2016,08,05,13,27,22.30
2016,08,05,13,28,22.30
2016,08,05,13,29,22.30
2016,08,05,13,30,22.40
2016,08,05,13,31,22.60
2016,08,05,13,32,22.60
2016,08,05,13,33,22.50
2016,08,05,13,34,22.50
2016,08,05,13,35,22.50
2016,08,05,13,36,22.40
2016,08,05,13,37,22.40
2016,08,05,13,38,22.40
2016,08,05,13,39,22.50
2016,08,05,13,40,22.60
2016,08,05,13,41,22.60
2016,08,05,13,42,22.60
2016,08,05,13,43,22.60
2016,08,05,13,44,22.60
2016,08,05,13,45,22.70
2016,08,05,13,46,22.70
2016,08,05,13,47,22.70
2016,08,05,13,48,22.70
2016,08,05,13,49,22.80
2016,08,05,13,50,22.80
2016,08,05,13,51,22.80
2016,08,05,13,52,22.80
2016,08,05,13,53,22.80
2016,08,05,13,54,22.80
2016,08,05,13,55,22.90
2016,08,05,13,56,22.90
2016,08,05,13,57,23.00
2016,08,05,13,58,22.90
2016,08,05,13,59,23.00
2016,08,05,14,00,23.00
2016,08,05,14,01,23.00
2016,08,05,14,02,23.00
2016,08,05,14,03,23.00
2016,08,05,14,04,23.10
2016,08,05,14,05,23.10
2016,08,05,14,06,23.00
2016,08,05,14,07,23.00
2016,08,05,14,08,22.80
2016,08,05,14,09,22.60
2016,08,05,14,10,22.40
2016,08,05,14,11,22.30
2016,08,05,14,12,22.30
2016,08,05,14,13,22.30
2016,08,05,14,14,22.20
2016,08,05,14,15,22.30
2016,08,05,14,16,22.30
2016,08,05,14,17,22.30
2016,08,05,14,18,22.40
2016,08,05,14,19,22.50
2016,08,05,14,20,22.60
2016,08,05,14,21,22.70
2016,08,05,14,22,22.80
2016,08,05,14,23,22.90
2016,08,05,14,24,22.90
2016,08,05,14,25,23.00
2016,08,05,14,26,23.10
2016,08,05,14,27,23.20
2016,08,05,14,28,23.20
2016,08,05,14,29,23.20
2016,08,05,14,30,23.10
2016,08,05,14,31,23.10
2016,08,05,14,32,23.10
2016,08,05,14,33,23.00
2016,08,05,14,34,23.00
2016,08,05,14,35,23.00
2016,08,05,14,36,23.00
2016,08,05,14,37,23.00
2016,08,05,14,38,22.90
2016,08,05,14,39,22.90
2016,08,05,14,40,22.90
2016,08,05,14,41,22.90
2016,08,05,14,42,22.90
2016,08,05,14,43,22.90
2016,08,05,14,44,22.80
2016,08,05,14,45,22.80
2016,08,05,14,46,22.70
2016,08,05,14,47,22.60
2016,08,05,14,48,22.60
2016,08,05,14,49,22.60
2016,08,05,14,50,22.60
2016,08,05,14,51,22.70
2016,08,05,14,52,22.70
2016,08,05,14,53,22.70
2016,08,05,14,54,22.80
2016,08,05,14,55,22.90
2016,08,05,14,56,23.00
2016,08,05,14,57,23.10
2016,08,05,14,58,23.20
2016,08,05,14,59,23.30
2016,08,05,15,00,23.30
2016,08,05,15,01,23.30
2016,08,05,15,02,23.30
2016,08,05,15,03,23.30
2016,08,05,15,04,23.20
2016,08,05,15,05,23.20
2016,08,05,15,06,23.30
2016,08,05,15,07,23.30
2016,08,05,15,08,23.30
2016,08,05,15,09,23.20
2016,08,05,15,10,23.10
2016,08,05,15,11,23.10
2016,08,05,15,12,23.00
2016,08,05,15,13,22.80
2016,08,05,15,14,22.60
2016,08,05,15,15,22.30
2016,08,05,15,16,22.20
2016,08,05,15,17,22.30
2016,08,05,15,18,22.30
2016,08,05,15,19,22.40
2016,08,05,15,20,22.60
2016,08,05,15,21,22.60
2016,08,05,15,22,22.50
2016,08,05,15,23,22.30
2016,08,05,15,24,22.20
2016,08,05,15,25,22.10
2016,08,05,15,26,22.10
2016,08,05,15,27,22.00
2016,08,05,15,28,21.90
2016,08,05,15,29,21.80
2016,08,05,15,30,21.70
2016,08,05,15,31,21.70
2016,08,05,15,32,21.70
2016,08,05,15,33,21.70
2016,08,05,15,34,21.70
2016,08,05,15,35,21.70
2016,08,05,15,36,21.70
2016,08,05,15,37,21.80
2016,08,05,15,38,21.90
2016,08,05,15,39,22.00
2016,08,05,15,40,22.10
2016,08,05,15,41,22.10
2016,08,05,15,42,22.10
2016,08,05,15,43,22.20
2016,08,05,15,44,22.20
2016,08,05,15,45,22.20
2016,08,05,15,46,22.20
2016,08,05,15,47,22.30
2016,08,05,15,48,22.30
2016,08,05,15,49,22.30
2016,08,05,15,50,22.20
2016,08,05,15,51,22.20
2016,08,05,15,52,22.20
2016,08,05,15,53,22.20
2016,08,05,15,54,22.20
2016,08,05,15,55,22.30
2016,08,05,15,56,22.20
2016,08,05,15,57,22.10
2016,08,05,15,58,22.10
2016,08,05,15,59,22.10
2016,08,05,16,00,22.10
2016,08,05,16,01,22.20
2016,08,05,16,02,22.10
2016,08,05,16,03,22.10
2016,08,05,16,04,22.20
2016,08,05,16,05,22.20
2016,08,05,16,06,22.20
2016,08,05,16,07,22.20
2016,08,05,16,08,22.30
2016,08,05,16,09,22.30
2016,08,05,16,10,22.40
2016,08,05,16,11,22.50
2016,08,05,16,12,22.60
2016,08,05,16,13,22.70
2016,08,05,16,14,22.70
2016,08,05,16,15,22.60
2016,08,05,16,16,22.60
2016,08,05,16,17,22.60
2016,08,05,16,18,22.70
2016,08,05,16,19,22.80
2016,08,05,16,20,22.80
2016,08,05,16,21,22.90
2016,08,05,16,22,23.00
2016,08,05,16,23,23.00
2016,08,05,16,24,22.90
2016,08,05,16,25,22.90
2016,08,05,16,26,22.90
2016,08,05,16,27,22.90
2016,08,05,16,28,22.80
2016,08,05,16,29,22.80
2016,08,05,16,30,22.80
2016,08,05,16,31,22.80
2016,08,05,16,32,22.80
2016,08,05,16,33,22.80
2016,08,05,16,34,22.80
2016,08,05,16,35,22.90
2016,08,05,16,36,22.90
2016,08,05,16,37,22.90
2016,08,05,16,38,22.90
2016,08,05,16,39,22.90
2016,08,05,16,40,22.80
2016,08,05,16,41,22.80
2016,08,05,16,42,22.80
2016,08,05,16,43,22.80
2016,08,05,16,44,22.80
2016,08,05,16,45,22.90
2016,08,05,16,46,22.80
2016,08,05,16,47,22.70
2016,08,05,16,48,22.70
2016,08,05,16,49,22.70
2016,08,05,16,50,22.80
2016,08,05,16,51,22.70
2016,08,05,16,52,22.70
2016,08,05,16,53,22.50
2016,08,05,16,54,22.50
2016,08,05,16,55,22.50
2016,08,05,16,56,22.50
2016,08,05,16,57,22.60
2016,08,05,16,58,22.60
2016,08,05,16,59,22.50
2016,08,05,17,00,22.50
2016,08,05,17,01,22.50
2016,08,05,17,02,22.50
2016,08,05,17,03,22.50
2016,08,05,17,04,22.50
2016,08,05,17,05,22.40
2016,08,05,17,06,22.10
2016,08,05,17,07,22.00
2016,08,05,17,08,21.90
2016,08,05,17,09,21.80
2016,08,05,17,10,21.70
2016,08,05,17,11,21.60
2016,08,05,17,12,21.60
2016,08,05,17,13,21.60
2016,08,05,17,14,21.60
2016,08,05,17,15,21.60
2016,08,05,17,16,21.60
2016,08,05,17,17,21.60
2016,08,05,17,18,21.60
2016,08,05,17,19,21.60